Location: Bottens
(46.6171°N, 6.6605°E)
Time: 11:26:20
(UTC+00:00)

Cosmos 1825 - Visible Passes

Search period start: 23 October 2021 00:00
Search period end: 02 November 2021 00:00
Orbit: 499 x 506 km, 82.5° (Epoch: 22 October)

Date Brightness Start Highest point End Pass type
(mag) Time Alt. Az. Time Alt. Az. Time Alt. Az.
23 Oct 4.0 18:17:03 10° N 18:18:15 18° NNE 18:18:15 18° NNE visible
23 Oct 5.5 19:52:58 10° NW 19:53:01 10° NW 19:53:01 10° NW visible
24 Oct 3.8 17:58:15 10° NNE 17:59:51 19° NE 17:59:51 19° NE visible
24 Oct 5.0 19:33:39 10° NW 19:34:37 15° NW 19:34:37 15° NW visible
25 Oct 3.7 17:39:33 10° NNE 17:41:33 18° NE 17:41:33 18° NE visible
25 Oct 4.3 19:14:25 10° NNW 19:16:20 24° NW 19:16:20 24° NW visible
26 Oct 3.8 17:20:59 10° NNE 17:23:08 15° ENE 17:23:26 14° ENE visible
26 Oct 3.4 18:55:15 10° NNW 18:58:14 40° WNW 18:58:14 40° WNW visible
27 Oct 4.1 17:02:48 10° NE 17:04:00 11° ENE 17:05:10 10° E visible
27 Oct 2.5 18:36:09 10° NNW 18:39:53 62° W 18:40:26 54° SW visible
28 Oct 2.1 18:17:06 10° N 18:20:52 86° W 18:23:12 22° S visible
29 Oct 2.0 17:58:05 10° N 18:01:51 69° E 18:05:35 10° SSE visible
30 Oct 2.2 17:39:07 10° N 17:42:48 50° ENE 17:46:28 10° SSE visible
30 Oct 5.5 19:16:09 10° WNW 19:17:47 12° W 19:19:25 10° WSW visible
31 Oct 2.6 17:20:12 10° N 17:23:44 37° ENE 17:27:15 10° SE visible
31 Oct 5.1 18:56:28 10° NW 18:58:52 16° W 19:01:18 10° SW visible
01 Nov 5.6 05:37:46 10° ESE 05:39:15 12° E 05:40:44 10° ENE visible
01 Nov 3.0 17:01:21 10° NNE 17:04:39 28° ENE 17:07:56 10° SE visible
01 Nov 4.7 18:37:02 10° NW 18:39:57 22° W 18:42:52 10° SW visible
